CZ-6A DEB, 61169

Orbit data source: Space-Track

CZ-6A DEB, 61169 is space debris in LEO originally from a launch on Tue, 06 Aug 2024 UTC launched from the Taiyaun Space Center, China (TSC). Debris objects in space refer to the collection of defunct objects orbiting the Earth. Examples of debris include non-operational satellites, rocket bodies, and fragments generated from explosions, collisions, or faulty payload assembly.

Loading next visibility...
Identifier
61169, 2024-140RP
Orbit
LEO
Country
Flag of CNCN / PRC
Related business
Manufacturer
SAST
Mission
Spacecraft
Bus & Motor
Unknown
Mass
Unknown
Launch date (UTC)
2024-08-06 (2 years ago)
Launch vehicle
Unknown
Launch site
Taiyaun Space Center, China (TSC)
Object type
Payload
Rocket body
Debris
Shape & HBR
Unknown shape, 0.1 m
Radar Cross Section
Medium (>0.1 m² and <1 m²)

Expand to show TLE details & history
Last TLE update: 1 day ago

TLE from 1 day ago
0 CZ-6A DEB
1 61169U 24140RP  26170.55913090  .00005681  00000-0  94531-3 0  9997
2 61169  88.2857 209.2901 0090205 273.9730  85.1178 14.67252147 97165
Epoch: 2026-06-19T13:25Z
TLE epoch observation values (Epoch: 2026-06-19T13:25:08.909Z)
Latitude
-0.00004°
Longitude
100.21661°
Altitude
668.129 km
Speed
7.526 km/s
True Right ascension
13h 57m 09s
True Declination
0° 00' 00"
Sunlit
Object was in full shadow at epoch
Visualization orbit readout
Latitude
Unknown
Longitude
Unknown
Altitude
Unknown
Speed
Unknown
Apparent Right ascension
Unknown
Apparent Declination
Unknown
Sunlit
N/A
Visualization observer readout
Local Sidereal Time
10:20:23
Azimuth
Unknown
Elevation
Unknown
Doppler factor
Unknown
Orbital elements
Apogee altitude
730.291 km
Perigee altitude
603.195 km
Semi-major axis
7,044.88 km
Eccentricity
0.00902
Inclination
88.2857°
RAAN
209.2901°
Arg. of periapsis
273.973°
True anomaly
86.14866°
Mean anomaly
85.1178°
Eccentric anomaly
85.63314°
Mean motion
3.67056 °/min
Orbital period
98.08 mins
BSTAR
0.00094531
Loading maneuver chart data...
Computing Atmospheric mass density...
Loading historical data...
Loading historical data...
Loading historical data...
Loading historical data...
Loading historical data...
Loading historical data...
Loading historical data...

Documentation

Showing up to 5 results
|